Location: Bolechy
(48.6635°N, 14.2733°E)
Time: 13:15:59
(UTC+00:00)

Daily predictions for brighter satellites

Satellite Brightness Start Highest point End
(mag) Time Altitude Azimuth Time Altitude Azimuth Time Altitude Azimuth
ATLAS 2AS CENTAUR R/B 4.0 15:30:50 10° W 15:37:52 35° NNW 15:44:38 10° NE
USA 307 3.4 15:36:26 10° W 15:40:37 51° NNW 15:44:48 10° ENE
Cosmos 990 Rocket 4.1 15:37:35 10° NNW 15:42:43 55° ENE 15:47:47 10° SE
NOAA 6 4.4 15:38:02 10° SE 15:42:49 41° ENE 15:47:38 10° N
SeaSat 1 3.8 15:41:45 10° NNE 15:46:11 34° NW 15:50:35 10° WSW
NOSS 2-1 (C) 4.1 15:43:32 10° WSW 15:46:32 35° NW 15:49:43 10° NNE
Cosmos 1408 Rocket 3.5 15:42:19 10° N 15:46:41 71° E 15:51:03 10° SSE
SL-16 R/B 4.5 15:48:39 10° NW 15:50:19 11° NNW 15:51:58 10° N
Iridium 2 4.1 15:48:48 10° N 15:52:33 66° W 15:56:15 10° S
Meteor PRIRODA 3.5 15:49:14 10° SSE 15:52:52 75° ENE 15:56:30 10° N
NOSS 3-1 (A) 4.1 15:46:31 10° NW 15:53:52 78° NE 16:02:34 10° SE
Okean O Rocket 3.1 15:51:13 10° E 15:53:56 16° ENE 15:56:40 10° NNE
USA 234 3.3 15:47:28 10° ESE 15:54:02 84° NNE 16:00:36 10° NW
Cosmos 1743 Rocket 3.8 15:50:07 10° N 15:54:19 46° ENE 15:58:29 10° SSE
NOSS 3-1 (C) 4.4 15:47:14 10° NW 15:54:38 76° SW 16:03:20 10° SSE
ATLAS CENTAUR R/B 3.1 15:51:21 10° W 15:55:02 28° NW 15:58:59 10° NNE
USA 276 3.0 15:52:02 10° W 15:55:04 49° SSW 15:58:06 10° SE
COSMOS 2406 4.1 15:50:38 10° SSE 15:55:32 30° ESE 16:00:27 10° NE
NOSS 2-1 (D) 4.3 15:53:05 10° WSW 15:55:59 30° NW 15:59:04 10° NNE
COSMOS 2455 4.1 15:51:34 10° SSE 15:56:07 23° ESE 16:00:41 10° ENE
NOAA 12 4.1 15:51:34 10° SSE 15:56:53 78° ENE 16:02:14 10° NNW
Cosmos 1782 4.1 15:57:39 10° SE 16:00:37 20° E 16:03:36 10° NE
NOSS 2-2 (E) 4.4 15:56:18 10° NW 16:01:10 52° NE 16:07:54 10° ESE
Cosmos 1833 Rocket 3.2 15:57:04 10° S 16:02:18 42° ESE 16:07:35 10° NE
USA 308 3.5 15:59:02 10° W 16:03:08 44° N 16:06:49 12° ENE
ARGOS 4.1 15:59:22 10° ESE 16:03:38 24° ENE 16:07:54 10° N
Spot 1 4.3 16:00:10 10° NNE 16:04:51 83° ESE 16:09:47 10° SSW
Cosmos 1340 Rocket 2.8 16:06:00 10° N 16:10:05 88° ENE 16:14:10 10° S
Cosmos 1464 Rocket 4.2 16:03:48 10° SSW 16:10:11 81° W 16:16:37 10° N
CZ-4C R/B 4.3 16:06:39 10° N 16:10:25 45° WNW 16:13:59 10° SW
SJ 16-02 3.7 16:06:48 10° NW 16:10:31 27° W 16:14:13 10° SSW
PAYLOAD B 4.5 16:07:27 10° SE 16:12:47 47° ENE 16:18:09 10° N
ISS -3.6 16:11:05 10° WNW 16:14:27 61° NNE 16:17:10 15° E
Cosmos 1606 3.8 16:13:18 10° SSW 16:16:55 46° WNW 16:20:36 10° N
CZ-2D R/B 3.7 16:13:27 10° SE 16:17:02 39° ENE 16:20:37 10° N
Nadezhda 4 Rocket 4.2 16:11:26 10° N 16:17:47 82° W 16:24:06 10° S
Lacrosse 5 rocket 2.3 16:15:18 10° NW 16:18:39 28° NNE 16:20:54 17° ENE
CZ-4B R/B 3.6 16:15:05 10° SE 16:20:03 38° ENE 16:24:57 10° N
Cosmos 2360 4.2 16:15:08 10° NNW 16:20:54 74° ENE 16:26:37 10° SE
Meteor 1-20 Rocket 4.3 16:16:16 10° N 16:22:08 82° E 16:27:59 10° SSE
CZ-2C R/B 3.5 16:18:25 10° NE 16:22:48 27° E 16:27:08 10° SSE
Cosmos 1500 Rocket 3.6 16:18:47 10° N 16:23:15 84° W 16:27:39 10° S
Cosmos 540 Rocket 3.8 16:19:18 10° S 16:24:06 44° ESE 16:28:33 12° NE
CZ-4C R/B 3.1 16:17:40 10° NW 16:24:20 50° NE 16:32:16 10° ESE
Cosmos 1818 4.5 16:20:09 10° NNW 16:24:58 30° NE 16:28:21 17° E
GEOS 3 Rocket 4.3 16:21:01 12° E 16:25:09 33° NNE 16:29:46 10° NNW
CZ-4B R/B 4.0 16:23:19 10° S 16:27:15 47° W 16:31:02 10° NNW
Cosmos 1500 3.4 16:25:15 10° N 16:28:51 42° ENE 16:32:24 10° SSE
SMAP 3.1 16:24:15 10° SSE 16:28:54 82° WSW 16:33:35 10° NNW
USA 305 3.6 16:26:29 10° WNW 16:30:29 40° N 16:32:56 20° NE
Cosmos 44 Rocket 4.3 16:26:32 10° NNW 16:30:49 28° NE 16:33:01 20° ENE
CZ-2C R/B 4.0 16:26:23 10° S 16:31:07 47° W 16:35:46 10° NNW
MOS 1-B 4.3 16:26:08 10° SSE 16:31:49 62° ENE 16:37:32 10° N
Cosmos 1092 Rocket 4.0 16:26:10 10° N 16:32:34 80° E 16:38:54 10° SSE
Cosmos 468 Rocket 3.9 16:28:38 10° SSW 16:33:47 84° ESE 16:39:01 10° NNE
Cosmos 1898 Rocket 3.7 16:29:13 10° NNW 16:34:30 78° WSW 16:39:42 10° SSE
Cosmos 1805 Rocket 3.4 16:30:29 10° N 16:34:50 77° E 16:39:10 10° SSE
Sich 1 2.9 16:31:14 10° N 16:35:30 62° ENE 16:39:46 10° SSE
Cosmos 1933 3.2 16:32:51 10° S 16:36:53 75° E 16:40:56 10° NNE
Cosmos 1428 Rocket 4.4 16:31:09 10° N 16:37:18 76° E 16:43:27 10° SSE
Cosmos 2221 4.0 16:35:52 10° SW 16:39:50 37° WNW 16:43:52 10° N
Cosmos 2360 Rocket 3.8 16:36:51 10° N 16:40:02 15° NNE 16:40:27 15° NE
PSLV R/B 3.6 16:38:33 10° SSE 16:42:13 87° ENE 16:45:59 10° NNW
deb Chang Zheng 4 3.5 16:47:43 10° SSE 16:51:56 58° ENE 16:56:11 10° N
Cosmos 1627 Rocket 4.5 16:47:03 10° N 16:53:16 85° W 16:59:23 10° S
H-2A R/B 2.0 16:49:40 10° SSE 16:54:52 88° ENE 16:59:57 10° NNW
Meteor 1-14 Rocket 4.3 16:50:58 10° N 16:56:44 64° ENE 17:02:36 10° SSE
Meteor 2-16 Rocket 4.4 16:50:49 10° N 16:56:53 61° ENE 17:02:56 10° SSE
NOSS 2-2 (C) 4.3 16:52:59 10° NW 16:58:04 88° NE 17:05:14 10° SE
Cosmos 1666 2.7 16:54:54 10° N 16:58:32 50° ENE 17:02:09 10° SSE
ERBS 3.9 16:56:40 10° WNW 16:59:14 21° NNW 16:59:46 21° N
Cosmos 2322 Rocket 3.2 16:55:12 10° N 16:59:52 25° NE 17:00:05 25° NE
Cosmos 2279 Rocket 4.0 16:56:26 10° S 17:02:30 58° E 17:08:35 10° NNE
USA 267 3.4 16:58:13 22° NE 17:02:35 68° NNW 17:09:03 10° WSW
USA 306 3.6 16:58:41 10° WNW 17:02:43 40° N 17:03:44 34° NE
Cosmos 1697 Rocket 3.5 16:57:36 10° NW 17:03:04 53° WSW 17:08:29 10° S
SJ-11-01 4.2 16:58:31 10° SSE 17:03:12 65° ENE 17:07:55 10° N
Cosmos 2266 Rocket 4.4 16:59:30 10° N 17:05:30 41° ENE 17:11:30 10° SE
Cosmos 2369 3.9 17:00:46 10° NNW 17:06:32 74° WSW 17:12:12 10° SSE
Cosmos 1980 Rocket 2.2 17:01:21 10° NNW 17:07:04 89° WSW 17:12:42 10° SSE
COSMO-SKYMED 1 2.5 17:05:08 27° NNE 17:07:23 61° E 17:11:40 10° S
MOS 1-B Rocket 3.9 17:01:40 10° NNE 17:07:31 79° ESE 17:14:07 10° SSW
Cosmos 1763 Rocket 4.2 17:03:50 10° SW 17:08:45 50° WNW 17:13:31 11° NNE
Meteor 1-5 Rocket 4.2 17:02:58 10° N 17:08:58 71° ENE 17:14:52 10° SSE
SL-24 R/B - RUBIN 2 3.7 17:07:36 10° NW 17:12:10 74° SW 17:15:48 14° SSE
Cosmos 841 Rocket 3.4 17:08:56 10° SSW 17:14:06 88° ESE 17:17:15 24° NNE
Cosmos 1812 2.5 17:11:44 10° S 17:15:34 78° E 17:16:31 49° NNE
Cosmos 1937 Rocket 4.5 17:10:49 10° NNW 17:15:57 49° WSW 17:21:02 10° S
Helios 1B 4.4 17:14:16 32° NNE 17:16:14 73° ESE 17:20:32 10° S
SL-16 R/B 2.6 17:11:50 10° NNW 17:17:08 38° NE 17:17:26 38° ENE
Cosmos 1125 Rocket 4.0 17:12:32 10° N 17:17:07 38° NE 17:17:07 38° NE
Cosmos 1634 Rocket 4.2 17:11:47 10° SSW 17:18:06 74° W 17:24:29 10° N
Cosmos 1633 Rocket 2.9 17:14:24 10° N 17:18:47 80° E 17:23:11 10° SSE
YAOGAN 1 3.8 17:22:20 27° N 17:22:20 27° N 17:24:28 10° N
USA 307 3.5 17:17:00 10° WNW 17:21:05 41° N 17:21:20 40° NNE
Cosmos 2082 Rocket 2.1 17:16:02 10° SSW 17:21:43 79° ESE 17:24:28 32° NNE
Cosmos 2333 Rocket 4.0 17:21:49 10° N 17:24:10 16° NNE 17:24:10 16° NNE
Okean O Rocket 1.8 17:25:19 10° S 17:29:45 73° WSW 17:34:14 10° NNW
Cosmos 2278 3.7 17:25:17 10° NNW 17:31:01 82° WSW 17:36:42 10° SSE
ATLAS 2AS CENTAUR R/B 4.1 17:24:58 10° NW 17:31:05 25° N 17:33:27 21° NNE
ATLAS CENTAUR R/B 4.0 17:33:33 10° NW 17:35:25 12° NNW 17:36:14 12° N
Cosmos 1151 Rocket 3.2 17:32:12 10° SSW 17:36:30 72° W 17:38:08 37° N
Cosmos 1782 4.3 17:32:57 10° SW 17:36:40 37° WNW 17:39:43 14° N
Cosmos 1655 Rocket 3.9 17:30:24 10° N 17:36:50 70° E 17:43:10 10° SSE
COSMOS 2406 3.9 17:33:59 10° SW 17:39:35 52° NW 17:43:05 23° NNE
COSMOS 2455 2.9 17:35:25 10° SW 17:41:27 75° NW 17:43:55 38° NNE
Meteor 2-15 4.3 17:36:22 10° S 17:42:26 71° E 17:45:42 29° NNE
ARGOS 3.6 17:38:08 10° S 17:43:30 61° W 17:48:52 10° NNW
Cosmos 1666 Rocket 4.5 17:39:19 10° NNW 17:43:36 48° W 17:47:50 10° SSW
USA 308 3.8 17:39:31 10° WNW 17:42:51 39° NNW 17:42:51 39° NNW
Cosmos 1833 Rocket 3.9 17:41:04 10° WSW 17:46:17 38° NW 17:49:48 19° N
Cosmos 2180 Rocket 4.5 17:42:32 10° S 17:48:55 86° W 17:55:15 10° N
Meteor 2-6 Rocket 4.2 17:44:56 10° SSW 17:50:43 85° W 17:53:25 33° N
Cosmos 1328 Rocket 3.7 17:46:25 10° SSW 17:50:51 72° W 17:50:52 72° WNW
ISS -1.9 17:48:00 10° WNW 17:50:10 31° WSW 17:50:10 31° WSW
Cosmos 2219 Rocket 4.2 17:50:53 10° N 17:52:22 15° N 17:52:22 15° N
CZ-4 R/B 4.1 17:59:49 11° NNW 17:59:49 11° NNW 17:59:58 10° NNW
Lacrosse 5 rocket 2.7 17:54:15 10° NW 17:56:30 33° NW 17:56:30 33° NW
Landsat 5 4.3 18:00:26 48° WSW 18:00:26 48° WSW 18:03:44 10° SSW
Cosmos 2298 Rocket 4.0 17:55:28 10° NNW 18:00:27 78° NNW 18:00:27 78° NNW
Cosmos 1570 Rocket 4.1 17:56:20 10° SSW 18:01:33 71° WNW 18:02:05 65° NNW
GEOS 3 Rocket 3.8 18:02:08 60° S 18:02:56 70° SW 18:08:08 10° NW
CZ-2C R/B 3.4 17:59:22 16° N 18:03:20 47° WNW 18:08:15 10° SW
ATLAS CENTAUR R/B 3.0 17:56:34 10° WSW 18:03:25 46° NW 18:03:25 46° NW
Meteor 1-11 Rocket 3.7 18:02:35 10° NNW 18:07:51 79° NNW 18:07:51 79° NNW
Meteor 1-10 Rocket 4.2 18:02:58 10° SSW 18:08:46 83° WNW 18:09:02 80° NNW
Cosmos 1818 3.7 18:03:33 10° NW 18:09:02 72° SW 18:09:03 72° SW
Cosmos 44 Rocket 3.9 18:07:53 10° NW 18:11:47 52° WNW 18:11:47 52° WNW
CZ-4C R/B 3.5 18:06:08 10° NW 18:13:15 58° WSW 18:20:10 15° SSE
Cosmos 2360 Rocket 3.7 18:19:48 10° NNW 18:22:14 25° NNW 18:22:14 25° NNW
Cosmos 2322 Rocket 3.5 18:38:49 10° NNW 18:41:55 34° NW 18:41:55 34° NW
USA 267 4.0 18:45:34 43° NNW 18:45:34 43° NNW 18:51:13 10° WNW
SL-16 R/B 3.7 18:55:59 10° NW 18:59:20 32° WNW 18:59:20 32° WNW
Cosmos 2082 Rocket 4.1 19:01:56 10° W 19:06:20 24° NW 19:06:20 24° NW
ATLAS 2AS CENTAUR R/B 4.4 19:17:21 10° NW 19:20:53 26° NNW 19:20:53 26° NNW
